Regional Weather Roundup
Issued by NWS Upton, NY

Home | Current Version | Previous Version | Text Only | Print | Product List | Glossary On
Versions: 1 2 3 4 5 6 7 8 9 10 11 12 13 14 15 16 17 18 19 20 21 22 23 24 25 26 27
000
ASUS41 KOKX 291809
RWROKX

REGIONAL WEATHER ROUNDUP
NATIONAL WEATHER SERVICE NEW YORK NY
200 PM EDT MON MAY 29 2017

NOTE: "FAIR" INDICATES FEW OR NO CLOUDS BELOW 12,000 FEET WITH NO
SIGNIFICANT WEATHER AND/OR OBSTRUCTIONS TO VISIBILITY.

NYZ071-072-176-178-NJZ106-104-291900-
NEW YORK CITY METRO AREA

CITY           SKY/WX    TMP DP  RH WIND       PRES   REMARKS
Central Park   CLOUDY    58  54  86 VRB5      30.01R
Wall St Helipt CLOUDY    59  54  82 NE8       29.99R
Bronx Bot Gard   N/A     55  52  88 E8        30.00S
LaGuardia APRT CLOUDY    57  54  89 NE16      29.98S
Kennedy INTL   CLOUDY    61  55  81 E7        29.99S
Breezy Point     N/A     57 N/A N/A SE10        N/A
Newark/Liberty CLOUDY    60  52  74 E6        29.98R
Teterboro      CLOUDY    58  53  84 E8        29.98R
$$

NYZ177-179-078>081-291900-
LONG ISLAND NEW YORK

CITY           SKY/WX    TMP DP  RH WIND       PRES   REMARKS
Jones Beach      N/A     55 N/A N/A E9G15       N/A
Matinecock PT    N/A     73 N/A N/A E20         N/A
Farmingdale    CLOUDY    57  53  86 NE3       29.99R
MacArthur/ISP  LGT RAIN  58  54  86 NE7       29.98R
Shirley        CLOUDY    57  54  89 VRB5      29.98R
Mt Sinai Harb    N/A     54 N/A N/A NE9         N/A
Westhampton    LGT RAIN  56  52  86 NE10G16   29.99R FOG
East Hampton   LGT RAIN  53  50  90 NE8       29.99R
Montauk          N/A     55  52  89 NE10G21   29.98S
$$

NYZ052-065-067-291900-
HUDSON VALLEY

CITY           SKY/WX    TMP DP  RH WIND       PRES   REMARKS
White Plains   CLOUDY    54  51  90 E7        29.99R
Larchmont Harb   N/A     54 N/A N/A NE17        N/A
Croton O-T Hud   N/A     57 N/A N/A E1          N/A
Newburgh       CLOUDY    55  54  94 SE7       30.00F
Montgomery     CLOUDY    57  52  83 E7        29.99R
Poughkeepsie   CLOUDY    56  53  90 CALM      29.99S FOG
Albany         LGT RAIN  56  53  90 S7        29.98R FOG
$$

NJZ001-105-106-008-010-013-015-019>022-104-291900-
NEW JERSEY

CITY           SKY/WX    TMP DP  RH WIND       PRES   REMARKS
Newark/Liberty CLOUDY    60  52  74 E6        29.98R
Teterboro      CLOUDY    58  53  84 E8        29.98R
Caldwell       CLOUDY    59  53  80 E8        30.00R
Somerville     CLOUDY    61  56  83 CALM      29.97R
Linden         NOT AVBL
Perth Amboy      N/A     57 N/A N/A E14         N/A
Sussex         RAIN      57  54  89 SE5       30.00R
Andover          N/A     57  54  89 CALM      29.99R
Trenton        CLOUDY    60  56  86 SE7       29.97R
Millville      CLOUDY    61  59  93 NE7       29.97R
Atlantic City  NOT AVBL
Wrightstown    CLOUDY    59  55  88 E6        29.96R
Toms River     CLOUDY    59  55  87 NE7       29.99R
Belmar         CLOUDY    58  54  86 E9        29.99R
$$

PAZ047>061-062-071-291900-
EASTERN PENNSYLVANIA

CITY           SKY/WX    TMP DP  RH WIND       PRES   REMARKS
Philadelphia   DRIZZLE   62  57  83 SE7       29.98R
Allentown      CLOUDY    61  57  87 SE7       29.97R
Scranton       CLOUDY    61  56  83 VRB7      29.94S
$$

CTZ002-004>006-009-010-012-RIZ004-006-007-MAZ004-011-015-291900-
SOUTHERN NEW ENGLAND
 IN CT

CITY           SKY/WX    TMP DP  RH WIND       PRES   REMARKS
Bradley INTL   LGT RAIN  58  51  78 E7        29.99R
Hartford       CLOUDY    57  50  77 E5        29.99R
Danbury        LGT RAIN  53  52  96 S3        30.02R FOG
Wtrbury/Oxford CLOUDY    54  48  82 S5        30.01R FOG
Bridgeport     LGT RAIN  56  51  84 E13       30.00R
Meriden        LGT RAIN  56  51  84 E6        30.00R
New Haven      CLOUDY    56  52  86 SE3       30.00R
Chester        CLOUDY    55  52  88 E6        29.99R
Groton         CLOUDY    57  51  80 NE12      29.97S
Wilimantic     CLOUDY    58  50  75 E10       29.99F

 IN RI

CITY           SKY/WX    TMP DP  RH WIND       PRES   REMARKS
Providence     CLOUDY    54  51  90 NE10      30.01S
Block Island   CLOUDY    53  51  93 NE15G22   29.98R
Westerly       LGT RAIN  56  52  86 NE6       29.99S
 IN MA

CITY           SKY/WX    TMP DP  RH WIND       PRES   REMARKS
Boston         CLOUDY    50  48  93 E10       30.05R
Worcester      LGT RAIN  48  45  89 NE7       30.02S
Westfield      NOT AVBL
Provincetown   LGT RAIN  50  49  96 NE9       30.03S
Nantucket      LGT RAIN  51  49  92 NE14      29.94F
$$

ANZ330-335-338-340-345-350-353-355-291900-
COASTAL MARINE OBSERVATIONS


STATION/POSITION TIME  SKY/WX   TEMP    WIND        PRES    VSBY  WAVE
                                AIR SEA DIR/SP/G                  HT/PER
                 (UTC)          (F)     (DEG/KT/KT) (MB)    (MI)  (FT/S)
NY HARB ENTRANCE 1650            55 57   50/ 12/ 14 1014.6          6/ 7
20 S FIRE ISLAND 1750            54 56   60/ 12/ 14 1014.1          7/ 7
GREAT SOUTH BAY  1730            57 64   60/  8/ 12   N/A
23 SSW MONTAUK P 1650            52 54              1013.6          7/ 7
15 E BARNEGAT LI 1700               58                N/A           7/ 8
HUDSON CANYON    1650            55 54   60/ 10/ 12 1012.2          7/ 7
KINGS POINT      1748            56 59   80/  4/ 10 1015.4
EXECUTION ROCKS  1745            56      80/ 16/ 19   N/A
CENTRAL LI SOUND NOT AVBL
EASTERN LI SOUND NOT AVBL
ROBBINS REEF     1748            58      90/  7/ 11 1015.7
$$


>>>>>>>>>>>>>>>>>>>>>>>>>>>> KEY <<<<<<<<<<<<<<<<<<<<<<<<<<<
>                                                          <
>     SKY/WX - Sky Condition/Present Weather               <
>     TMP    - Temperature in Fahrenheit                   <
>     DP     - Dew Point in Fahrenheit                     <
>     RH     - Relative Humidity in Percent                <
>     WIND   - Direction (from) and Speed in MPH           <
>     PRES   - Mean Sea Level Pressure (inches of Hg)      <
>     WCI    - Wind Chill Index                            <
>     VSB    - VISIBILITY IN MILES                         <
>     HX     - HEAT INDEX                                  <
>     TC     - TEMPERATURE IN CELSIUS                      <
>     VRB    - VARIABLE WIND DIRECTION                     <
>                                                          <
>>>>>>>>>>>>>>>>>>>>>>>>>>>> KEY <<<<<<<<<<<<<<<<<<<<<<<<<<<




USA.gov is the U.S. government's official web portal to all federal, state and local government web resources and services.